Cloud_Cover
2 0 0 0 0 0 0 0 0 0 0 0 0 0 0 0 0 0 6 1 5 0 0 7 4 0 0 0 0 0 2 48
0 0 0 0 0 0 0 0 0 0 0 0 0 0 0 0 0 0 0 0 0 0 0 0 0 3 0 0 0 0 0 0
0 0 0 0 0 0 0 0 0 0 0 0 0 0 0 0 0 0 0 3 0 0 0 0 0 0 4 2 0 0 0 0
0 0 0 0 0 0 2 4 4 5 5 6 5 4 3 0 0 0 0 0 0 0 1 0 0 0 0 2 5 1 0 0
0 0 0 0 0 0 0 0 0 0 0 4 14 8 2 4 5 5 24 5 5 3 3 0 0 5 3 0 0 0 0 0
0 0 0 0 0 0 0 0 0 0 0 0 0 4 5 5 5 5 0 0 1 2 5 5 5 4 5 5 5 0 0 0
1 3 0 0 0 0 4 0 0 0 0 0 0 3 5 4 0 0 0 0 0 0 1 2 4 4 5 5 5 3 0 0
5 6 5 5 5 5 4 0 0 2 2 0 2 1 1 0 0 0 0 0 0 0 0 0 5 5 5 4 3 5 5 4
52 27 5 5 14 24 6 5 5 3 0 0 0 0 0 0 0 0 0 0 0 0 0 0 0 0 1 5 5 5 4 5
0 0 5 4 4 2 5 3 1 0 0 0 0 0 0 0 0 0 0 0 1 0 0 1 4 0 0 0 0 1 5 5
0 0 0 4 5 5 5 3 0 0 0 0 2 5 4 5 5 4 3 1 0 0 0 0 0 0 0 2 2 0 0 0
0 0 5 5 5 5 5 2 0 4 5 0 0 0 0 0 0 0 0 0 0 0 1 2 4 1 0 3 0 0 0 0
0 5 5 5 5 5 5 5 1 0 0 0 0 5 5 0 4 5 5 4 5 0 2 5 4 5 5 0 0 0 0 0
0 5 5 5 5 5 4 5 5 5 16 58 8 5 5 5 4 4 3 2 0 0 0 0 5 5 5 5 2 0 0 0
0 0 1 3 0 5 4 13 43 36 9 5 5 5 5 0 0 0 0 0 0 0 0 0 3 5 8 35 5 5 4 1
5 5 5 5 11 9 5 21 32 5 5 5 5 5 5 5 4 0 0 0 0 0 0 1 5 5 5 7 5 5 5 5
91 100 97 10 5 5 6 72 5 12 18 5 5 5 5 5 5 0 0 0 0 0 0 0 5 57 10 91 100 83 46 5
21 73 18 77 87 86 82 27 74 70 84 76 5 17 5 4 5 5 3 0 1 18 65 84 100 75 80 87 100 100 82 48
87 97 100 86 87 85 100 100 41 5 41 24 7 7 21 41 8 5 2 22 60 87 85 100 100 100 100 100 100 100 100 100
41 27 62 72 100 100 100 99 87 88 12 95 97 94 61 58 18 5 23 14 32 82 100 100 100 100 100 100 100 100 100 100